Location: Newark
(12.4436°N, 0.6167°W)
Time: 20:35:45
(UTC+00:00)

Vanguard 2 - Pass Details

Date: 10 December 2019
Orbit: 553 x 2938 km, 32.9° (Epoch: 25 January)

Event Time Altitude Azimuth Distance (km) Brightness Sun altitude
Rises 10:22:15 0° 289° (WNW) 5,793 11.7 48.0°
Reaches altitude 10° 10:27:15 10° 280° (W) 4,366 11.2 48.6°
Maximum altitude 10:36:15 29° 226° (SW) 2,343 10.5 49.7°
Drops below altitude 10° 10:42:17 10° 168° (SSE) 2,847 11.3 50.4°
Sets 10:44:50 0° 155° (SSE) 3,532 11.6 50.7°
